Location: Bernadets
(43.3537°N, 0.3167°E)
Time: 08:18:14
(UTC+00:00)

CSL-04 Debris - Pass Details

Date: 24 October 2021
Orbit: 827 x 847 km, 98.9° (Epoch: 02 December)

Event Time Altitude Azimuth Distance (km) Brightness Sun altitude
Exits shadow 18:44:15 35° 107° (ESE) 1,327 4.7 -19.3°
Maximum altitude 18:45:47 43° 68° (ENE) 1,159 4.5 -19.6°
Drops below altitude 10° 18:50:52 10° 359° (N) 2,453 6.7 -20.5°
Sets 18:53:20 0° 353° (N) 3,395 7.5 -21.0°
